Mount Holly, NJ

6:48 PM EST on December 15, 2019 (GMT -0500)
South Jersey Regional

Weather History for KVAY - August, 2019

Change the Weather History Date:

Thursday, August 29, 2019

  Actual Average (WUND) Record (WUND)
Temperature  
Mean Temperature 72 °F -  
Max Temperature 82 °F - - (-1)
Min Temperature 60 °F - - (-1)
Cooling Degree Days 7    
Growing Degree Days 22 (Base 50)    
Moisture  
Dew Point 59 °F    
Average Humidity 69    
Maximum Humidity 96    
Minimum Humidity 37    
Precipitation  
Precipitation 0.00 in - - ()
Sea Level Pressure  
Sea Level Pressure 29.91 in    
Wind  
Wind Speed 3 mph (NW)    
Max Wind Speed 14 mph    
Max Gust Speed 20 mph    
Visibility 10 miles    
Events      
Averages and records for this station are not official NWS values.
T = Trace of Precipitation, MM = Missing Value Source: NWS Daily Summary

Daily Weather History Graph

Daily Weather History Graph

Search for Another Location

Airport or City:

Astronomy

Aug. 29, 2019 Rise Set
Actual Time 6:24 AM EDT 7:35 PM EDT
Civil Twilight 5:56 AM EDT 8:03 PM EDT
Nautical Twilight 5:22 AM EDT 8:37 PM EDT
Astronomical Twilight 4:47 AM EDT 9:11 PM EDT
Moon 5:06 AM EDT (8/29) 7:30 PM EDT (8/29)
Length of Visible Light 14h 07m
Length of Day
13h 11m
Waning Crescent, 1% of the Moon is Illuminated
Aug 29
Waning Crescent
Aug 30
New
Sep 5
First Quarter
Sep 14
Full
Sep 21
Last Quarter

Hourly Weather History & Observations

Time (EDT) Temp. Heat Index Dew Point Humidity Pressure Visibility Wind Dir Wind Speed Gust Speed Precip Events Conditions
12:03 AM 69.1 °F - 68.0 °F 96% 29.84 in 9.0 mi Calm Calm - N/A   Overcast
12:06 AM 69.1 °F - 68.0 °F 96% 29.84 in 7.0 mi Calm Calm - N/A   Overcast
12:54 AM 70.0 °F - 68.0 °F 93% 29.84 in 10.0 mi Calm Calm - N/A   Mostly Cloudy
1:19 AM 71.1 °F - 68.0 °F 90% 29.85 in 10.0 mi Calm Calm - N/A   Mostly Cloudy
1:28 AM 70.0 °F - 66.9 °F 90% 29.84 in 10.0 mi Calm Calm - N/A   Scattered Clouds
1:54 AM 70.0 °F - 66.0 °F 87% 29.84 in 10.0 mi WNW 3.5 mph - N/A   Clear
2:54 AM 69.1 °F - 64.0 °F 84% 29.85 in 10.0 mi WNW 3.5 mph - N/A   Clear
3:54 AM 66.9 °F - 62.1 °F 84% 29.86 in 10.0 mi Calm Calm - N/A   Clear
4:54 AM 64.9 °F - 61.0 °F 87% 29.87 in 10.0 mi NW 3.5 mph - N/A   Clear
5:54 AM 64.9 °F - 59.0 °F 81% 29.88 in 10.0 mi Variable 3.5 mph - N/A   Clear
6:54 AM 63.0 °F - 59.0 °F 87% 29.89 in 10.0 mi Calm Calm - N/A   Clear
7:54 AM 66.9 °F - 60.1 °F 79% 29.89 in 10.0 mi NW 4.6 mph - N/A   Clear
8:54 AM 71.1 °F - 60.1 °F 68% 29.91 in 10.0 mi WNW 4.6 mph - N/A   Clear
9:54 AM 75.0 °F - 60.1 °F 60% 29.93 in 10.0 mi NNW 10.4 mph - N/A   Clear
10:54 AM 77.0 °F - 60.1 °F 56% 29.94 in 10.0 mi NW 9.2 mph - N/A   Clear
11:54 AM 80.1 °F 80.6 °F 57.9 °F 47% 29.94 in 10.0 mi NNW 10.4 mph - N/A   Clear
12:54 PM 81.0 °F 80.7 °F 55.0 °F 41% 29.93 in 10.0 mi NNW 13.8 mph - N/A   Clear
1:54 PM 82.0 °F 81.4 °F 55.0 °F 39% 29.92 in 10.0 mi NW 8.1 mph 19.6 mph N/A   Clear
2:54 PM 82.0 °F 81.3 °F 54.0 °F 38% 29.91 in 10.0 mi WNW 8.1 mph 17.3 mph N/A   Clear
3:54 PM 82.0 °F 81.3 °F 54.0 °F 38% 29.91 in 10.0 mi Variable 6.9 mph - N/A   Clear
4:54 PM 82.0 °F 81.2 °F 53.1 °F 37% 29.91 in 10.0 mi NW 11.5 mph 17.3 mph N/A   Clear
5:54 PM 80.1 °F 79.9 °F 53.1 °F 39% 29.93 in 10.0 mi WNW 9.2 mph - N/A   Clear
6:54 PM 78.1 °F - 53.1 °F 42% 29.94 in 10.0 mi WNW 4.6 mph - N/A   Clear
7:54 PM 75.0 °F - 52.0 °F 44% 29.97 in 10.0 mi WNW 3.5 mph - N/A   Clear
8:54 PM 66.0 °F - 55.0 °F 68% 30.00 in 10.0 mi Calm Calm - N/A   Clear
9:54 PM 62.1 °F - 55.9 °F 80% 30.01 in 10.0 mi Calm Calm - N/A   Clear
10:54 PM 62.1 °F - 57.0 °F 84% 30.01 in 10.0 mi Calm Calm - N/A   Clear
11:54 PM 60.1 °F - 55.9 °F 86% 30.01 in 10.0 mi Calm Calm - N/A   Clear